Bowman Field
KLOU : now visible

Airfield :











YOU CAN JOIN US ON...

 
LOGIN :

Register | Disclaimer

   EN    FR    IT 

 









Legend :    VFR   Marginal VFR   IFR   Intensive IFR   Very Intensive IFR
Visi :
Ceiling :
>= 8 km
>= 3000ft
5 to 8 km
1000 to 3000 ft
1500m to 5 km
500 to 1000 ft
800 to 1500m
200 to 500 ft
< 800m
< 200 ft
Symbols :   Thunderstorms  Fog  Heavy snow  Heavy precipitations  Wind > 20 kt







- Airport Elevation : 546 ft


KLOU - Bowman Field

CURRENT METAR :
  • 191353Z 22007KT 10SM BKN015 28/23 A3004 RMK AO2 RAB06RAEMM SLP165 P0000 T02830233 $

EXPIRED METARs :
  • 191344Z 22007KT 10SM BKN015 28/23 A3003 RMK AO2 RAB06RAEMM P0000 T02830233 $
  • 191311Z 21006KT 10SM -RA BKN014 27/23 A3003 RMK AO2 RAB06 P0000 T02720228
  • 191253Z 22009KT 10SM SCT014 27/23 A3002 RMK AO2 SLP159 T02720228
  • 191153Z 18005KT 10SM CLR 26/22 A3000 RMK AO2 SLP154 T02560222 10272 20250 51012

TAF N/A
KZID FIR / North America



MET'MAP, your aeronautical weather chart ! - Copyright ORBIFLY December 2007 - Disclaimer

ORBIFLY MET'MAP TEAM :

Programming & Development : Alexandra Zaïnal
Concept & Development : Baudouin d'Aumeries
Co-Development & Prog : Marc-Olivier Méhu
Technical & hardware support : Manuel Goepfert

Contact : metmap@orbifly.com




SOURCES & CREDITS :

   NOAA       Earth
Advisory